Home   Weather   Adak   Past weeks

Flag for USA Past Weather in Adak, Alaska, USA — Yesterday and Last 2 Weeks

Now
54 °F

Overcast.


Feels Like: 48 °F
Forecast: 48 / 53 °F
Wind: 24 mph from West

Location: Adak

Current Time: Jul 23, 2017 at 4:00:31 pm

Latest Report: Jul 23, 2017 at 3:36 pm


Visibility: 10 mi

Pressure: 30.27 "Hg

Humidity: 67%

Dew Point: 43 °F

Location of AdakLocation

Past Weather in Adak — Graph

°F

Adak Temperature Yesterday

Maximum temperature yesterday: 52 °F (at 5:36 pm)
Minimum temperature yesterday: 45 °F (at 3:16 am)
Average temperature yesterday: 47 °F

High & Low Weather Summary for the Past Weeks

 TemperatureHumidityPressure
High61 °F (Jul 15, 1:36 pm)82% (Jul 15, 5:16 am)30.28 "Hg (Jul 15, 5:16 am)
Low45 °F (Jul 9, 3:56 am)55% (Jul 10, 3:56 pm)29.53 "Hg (Jul 8, 2:16 pm)
Average50 °F70%30.00 "Hg
* Reported Jul 8 2:16 pm — Jul 23 2:36 pm, Adak. Weather by CustomWeather, © 2017

Note: Actual official high and low records may vary slightly from our data, if they occured in-between our weather recording intervals... More about our weather records

Advertising

Adak Weather History for the Previous 24 Hours

Scroll right to see more
 ConditionsComfort  
Time TempWeatherWind HumidityBarometerVisibility
2:36 pm
Sun, Jul 23
54 °FMostly cloudy.21 mph67%30.27 "Hg10 mi
2:16 pm54 °FMostly cloudy.20 mph67%30.28 "Hg7 mi
1:56 pm54 °FCloudy.21 mph67%30.28 "Hg6 mi
1:36 pm54 °FCloudy.18 mph67%30.28 "Hg10 mi
12:56 pm54 °FMostly cloudy.18 mph67%30.28 "Hg10 mi
12:36 pm52 °FMostly cloudy.17 mph72%30.28 "Hg10 mi
12:16 pm52 °FMore clouds than sun.17 mph72%30.28 "Hg10 mi
11:36 am52 °FLow clouds.15 mph72%30.28 "Hg10 mi
11:16 am50 °FMostly cloudy.13 mph76%30.28 "Hg10 mi
10:56 am48 °FLow clouds.13 mph76%30.28 "Hg8 mi
10:36 am48 °FLow clouds.14 mph76%30.28 "Hg6 mi
9:56 am48 °FMostly cloudy.10 mph71%30.28 "Hg8 mi
9:36 am48 °FMostly cloudy.14 mph71%30.28 "Hg2 mi
8:56 am48 °FLow clouds.12 mph71%30.27 "Hg1 mi
8:36 am48 °FLow clouds.12 mph71%30.27 "Hg1 mi
8:16 am48 °FLow clouds.12 mph71%30.27 "Hg1 mi
7:56 am48 °FLow clouds.12 mph71%30.27 "Hg1 mi
7:36 am48 °FLow clouds.12 mph71%30.27 "Hg1 mi
6:36 am48 °FLow clouds.13 mph71%30.27 "Hg5 mi
6:16 am48 °FLow clouds.10 mph71%30.27 "Hg9 mi
5:56 am48 °FLow clouds.12 mph71%30.27 "Hg10 mi
5:36 am48 °FLow clouds.12 mph71%30.27 "Hg10 mi
4:56 am48 °FOvercast.8 mph71%30.27 "Hg9 mi
4:36 am48 °FLow clouds.8 mph71%30.27 "Hg6 mi
3:56 am48 °FOvercast.7 mph71%30.28 "Hg9 mi
3:36 am48 °FOvercast.9 mph71%30.28 "Hg10 mi
2:56 am48 °FOvercast.9 mph71%30.28 "Hg10 mi
2:36 am48 °FOvercast.9 mph71%30.28 "Hg10 mi
2:16 am48 °FOvercast.9 mph71%30.28 "Hg10 mi
1:56 am48 °FLow clouds.9 mph71%30.28 "Hg10 mi
1:36 am48 °FLow clouds.No wind71%30.28 "Hg10 mi
1:16 am48 °FLow clouds.No wind71%30.28 "Hg10 mi
12:56 am48 °FLow clouds.No wind71%30.28 "Hg10 mi
12:36 am48 °FLow clouds.3 mph71%30.28 "Hg10 mi
11:56 pm
Sat, Jul 22
48 °FOvercast.3 mph71%30.28 "Hg10 mi
11:16 pm48 °FOvercast.5 mph71%30.28 "Hg10 mi
10:36 pm48 °FOvercast.No wind71%30.28 "Hg10 mi
10:16 pm48 °FOvercast.5 mph66%30.28 "Hg10 mi
9:36 pm48 °FOvercast.3 mph71%30.27 "Hg10 mi
8:36 pm48 °FOvercast.6 mph71%30.26 "Hg10 mi
8:16 pm48 °FOvercast.7 mph71%30.26 "Hg10 mi
7:56 pm48 °FOvercast.7 mph71%30.26 "Hg10 mi
7:36 pm48 °FOvercast.7 mph71%30.26 "Hg10 mi
7:16 pm48 °FOvercast.8 mph71%30.25 "Hg10 mi
6:56 pm48 °FOvercast.7 mph71%30.25 "Hg10 mi
6:36 pm50 °FOvercast.9 mph67%30.26 "Hg10 mi
5:56 pm52 °FOvercast.9 mph62%30.26 "Hg10 mi
5:36 pm52 °FOvercast.9 mph62%30.26 "Hg10 mi
4:36 pm50 °FOvercast.9 mph71%30.25 "Hg10 mi
Weather by CustomWeather, © 2017

See weather overviewHow to use our weather pages